CZ-6A DEB, 54590

Orbit data source: Space-Track

CZ-6A DEB, 54590 is space debris in SSO originally from a launch on Fri, 11 Nov 2022 UTC launched from the Taiyaun Space Center, China (TSC). Debris objects in space refer to the collection of defunct objects orbiting the Earth. Examples of debris include non-operational satellites, rocket bodies, and fragments generated from explosions, collisions, or faulty payload assembly.

Loading next visibility...
Identifier
54590, 2022-151MQ
Orbit
SSO
Country
Flag of CNCN / PRC
Related business
Manufacturer
SAST
Mission
Spacecraft
Bus & Motor
Unknown
Mass
Unknown
Launch date (UTC)
2022-11-11 (4 years ago)
Launch vehicle
Unknown
Launch site
Taiyaun Space Center, China (TSC)
Object type
Payload
Rocket body
Debris
Shape & HBR
Unknown shape, 0.1 m
Radar Cross Section
Small (<0.1 m²)

Expand to show TLE details & history
Last TLE update: 1 day ago

TLE from 1 day ago
0 CZ-6A DEB
1 54590U 22151MQ  26143.96906652  .00002530  00000-0  83535-3 0  9990
2 54590  98.6041 154.1660 0070014 141.8930 218.7237 14.37525223183639
Epoch: 2026-05-23T23:15Z
TLE epoch observation values (Epoch: 2026-05-23T23:15:27.347Z)
Latitude
-0.00007°
Longitude
-76.27588°
Altitude
808.8 km
Speed
7.428 km/s
True Right ascension
10h 16m 39s
True Declination
0° 00' 00"
Sunlit
Object was in daylight at epoch
Visualization orbit readout
Latitude
Unknown
Longitude
Unknown
Altitude
Unknown
Speed
Unknown
Apparent Right ascension
Unknown
Apparent Declination
Unknown
Sunlit
N/A
Visualization observer readout
Local Sidereal Time
09:14:40
Azimuth
Unknown
Elevation
Unknown
Doppler factor
Unknown
Orbital elements
Apogee altitude
813.82 km
Perigee altitude
713.813 km
Semi-major axis
7,141.954 km
Eccentricity
0.007
Inclination
98.6041°
RAAN
154.166°
Arg. of periapsis
141.893°
True anomaly
218.22522°
Mean anomaly
218.7237°
Eccentric anomaly
218.47412°
Mean motion
3.59598 °/min
Orbital period
100.11 mins
BSTAR
0.00083535
Loading maneuver chart data...
Computing Atmospheric mass density...
Loading historical data...
Loading historical data...
Loading historical data...
Loading historical data...
Loading historical data...
Loading historical data...
Loading historical data...

Documentation

Showing up to 5 results
|